Regional Weather Roundup
Issued by NWS

Home | Current Version | Previous Version | Graphics & Text | Print | Product List | Glossary On
Versions: 1 2 3 4 5 6 7 8 9 10 11 12 13 14 15 16 17 18 19 20 21 22 23 24 25 26 27 28 29 30 31 32 33 34 35 36 37 38 39 40 41 42 43 44 45 46 47 48 49 50
000
ASUS45 KABQ 262201
RWRNM
NEW MEXICO REGIONAL WEATHER ROUNDUP
NATIONAL WEATHER SERVICE ALBUQUERQUE NM
400 PM MDT MON SEP 26 2016

NOTE: "FAIR" MEANS FEW OR NO CLOUDS BELOW 12,000 FEET AGL WITH NO
       SIGNIFICANT WEATHER OR OBSTRUCTIONS TO VISION.

      THIS PRODUCT IS RELEASED AS TWO VERSIONS.  ONE VERSION NEAR
      THE TOP OF THE HOUR CONTAINING PRELIMINARY DATA FROM ALBUQUERQUE
      AND OTHER STATIONS.  A FINAL VERSION WITH ADDITIONAL DATA IS
      ISSUED ABOUT 10 MINUTES AFTER THE HOUR.

NMZ501-503-504-510>518-262300-
NORTHWEST PLATEAU/NORTHCENTRAL MOUNTAINS

CITY           SKY/WX    TMP DP  RH WIND       PRES   REMARKS
FARMINGTON     FAIR      73  32  22 VRB6      30.31F
LOS ALAMOS     FAIR      65  30  27 SE6       30.43F
SANTA FE       FAIR      69  30  23 VRB6G20   30.38F
TAOS           FAIR      70  30  23 CALM      30.39F
ANGEL FIRE     FAIR      65  31  28 S9        30.46F

$$
NMZ402-403-502-505>509-262300-
WESTCENTRAL MOUNTAINS/SOUTHWEST MOUNTAINS

CITY           SKY/WX    TMP DP  RH WIND       PRES   REMARKS
GALLUP         FAIR      74  29  19 VRB6      30.34F
SILVER CITY    CLOUDY    63  34  34 SE16G24   30.32S

$$
NMZ407-409-411-412-262300-
SOUTHERN DESERTS

CITY           SKY/WX    TMP DP  RH WIND       PRES   REMARKS
DEMING         CLOUDY    62  44  51 SE14G25   30.30S
LAS CRUCES     CLOUDY    66  34  30 SE14G20   30.31R
HOLLOMAN AFB   FAIR      76  34  21 SW10G20   30.23F
ALAMOGORDO     FAIR      73  32  21 SW9G16    30.25S
T OR C         CLOUDY    73  32  22 SE8       30.27F

$$
NMZ519>523-262300-
CENTRAL VALLEYS/CENTRAL HIGHLANDS

CITY           SKY/WX    TMP DP  RH WIND       PRES   REMARKS
ALBUQUERQUE    PTSUNNY   71  29  21 NE9G22    30.33F
DOUBLE EAGLE   PTSUNNY   66  30  26 SE14      30.37F
MORIARTY ARPT  FAIR      68  26  20 SE8       30.41S
CLINES CORNERS FAIR      64  31  28 SE10      30.44S
BELEN          FAIR      74  28  18 NE7       30.32F
SOCORRO        PTSUNNY   75  29  18 E14G20    30.30S

$$
NMZ524>526-539-540-262300-
SOUTHCENTRAL MOUNTAINS

CITY           SKY/WX    TMP DP  RH WIND       PRES   REMARKS
RUIDOSO        FAIR      57  32  38 SE14G22   30.45S

$$
NMZ527>531-262300-
NORTHEAST HIGHLANDS/NORTHEAST PLAINS

CITY           SKY/WX    TMP DP  RH WIND       PRES   REMARKS
LAS VEGAS      FAIR      63  30  28 SE10      30.43S
RATON          FAIR      69  33  26 SW7       30.37F
CLAYTON        FAIR      71  36  27 VRB5      30.34F

$$
NMZ532>537-262300-
EASTCENTRAL PLAINS

CITY           SKY/WX    TMP DP  RH WIND       PRES   REMARKS
TUCUMCARI      FAIR      76  33  21 CALM      30.30F
CANNON AFB     SUNNY     72  39  30 E15       30.33S
CLOVIS AIRPORT FAIR      72  39  30 SE9       30.32F

$$
NMZ028-029-538-262300-
SOUTHEAST PLAINS

CITY           SKY/WX    TMP DP  RH WIND       PRES   REMARKS
ROSWELL        FAIR      71  38  29 SE16      30.31S
ARTESIA        FAIR      66  46  48 S5        30.32F
CARLSBAD       LGT RAIN  58  53  84 SW7       30.31F
HOBBS          PTSUNNY   63  41  45 E7        30.32F


$$




USA.gov is the U.S. government's official web portal to all federal, state and local government web resources and services.